Track SUOMI NPP now! 10-day predictions SUOMI NPP is classified as:
1 37849U 11061A 25189.15856301 .00000038 00000-0 38756-4 0 9998 2 37849 98.7580 128.1119 0000778 175.9131 184.2051 14.19544396709623